When you browse on this site, cookies collect data to enhance your experience and personalize the content and advertising you see.
Visit our Privacy Policy to learn more. By continuing to use the site, you agree to this use of cookies and data.
  • In Romania
  • List of Countries
  • For 7 days
  • Water Temperature
  • Weather Map
  • Weather Widgets
  • user-avatar
    Login

    Hourly Weather Trowbridge

    Today, 25 January, Saturday

    Time Temperature Precipitation Wind Pressure Humidity
    00:00 +7°C° 0 mm 1 mps 762 mmHg 90%
    01:00 +6°C° 0 mm 1 mps 761 mmHg 91%
    02:00 +6°C° 0 mm 1 mps 761 mmHg 92%
    03:00 +5°C° 0 mm 1 mps 761 mmHg 93%
    04:00 +5°C° 0 mm 1 mps 760 mmHg 93%
    05:00 +4°C° 0 mm 1 mps 760 mmHg 94%
    06:00 +3°C° 0 mm 2 mps 760 mmHg 95%
    07:00 +3°C° 0 mm 2 mps 760 mmHg 95%
    08:00 +3°C° 0 mm 2 mps 760 mmHg 95%
    09:00 +4°C° 0 mm 2 mps 760 mmHg 95%
    10:00 +4°C° 0 mm 3 mps 759 mmHg 92%
    11:00 +5°C° 0 mm 3 mps 759 mmHg 90%
    12:00 +7°C° 0 mm 4 mps 759 mmHg 88%
    13:00 +8°C° 0 mm 3 mps 759 mmHg 89%
    14:00 +8°C° 0 mm 3 mps 758 mmHg 90%
    15:00 +8°C° 0 mm 2 mps 757 mmHg 91%
    16:00 +8°C° 0 mm 2 mps 757 mmHg 92%
    17:00 +7°C° 0 mm 2 mps 757 mmHg 94%
    18:00 +7°C° 0 mm 2 mps 757 mmHg 95%
    19:00 +7°C° 0 mm 3 mps 756 mmHg 95%
    20:00 +7°C° 0 mm 3 mps 756 mmHg 95%
    21:00 +7°C° 0 mm 3 mps 756 mmHg 94%
    22:00 +7°C° 0 mm 3 mps 755 mmHg 95%
    23:00 +7°C° 0 mm 3 mps 755 mmHg 96%

    Tomorrow, 26 January, Sunday

    Time Temperature Precipitation Wind Pressure Humidity
    00:00 +7°C° 0 mm 3 mps 755 mmHg 97%
    01:00 +7°C° 0.1 mm 3 mps 754 mmHg 96%
    02:00 +5°C° 0.1 mm 3 mps 754 mmHg 96%
    03:00 +5°C° 0.1 mm 3 mps 754 mmHg 96%
    04:00 +5°C° 0 mm 3 mps 754 mmHg 94%
    05:00 +5°C° 0 mm 3 mps 753 mmHg 93%
    06:00 +5°C° 0 mm 3 mps 753 mmHg 92%
    07:00 +5°C° 0 mm 3 mps 753 mmHg 92%
    08:00 +5°C° 0 mm 4 mps 753 mmHg 93%
    09:00 +5°C° 0 mm 4 mps 753 mmHg 93%
    10:00 +6°C° 0.4 mm 5 mps 752 mmHg 92%
    11:00 +7°C° 0.4 mm 6 mps 752 mmHg 91%
    12:00 +8°C° 0.4 mm 7 mps 751 mmHg 91%
    13:00 +8°C° 2 mm 7 mps 751 mmHg 91%
    14:00 +8°C° 2 mm 6 mps 751 mmHg 92%
    15:00 +8°C° 2 mm 5 mps 750 mmHg 93%
    16:00 +7°C° 0.8 mm 4 mps 750 mmHg 94%
    17:00 +8°C° 0.8 mm 3 mps 750 mmHg 95%
    18:00 +8°C° 0.8 mm 2 mps 750 mmHg 96%
    19:00 +7°C° 0.1 mm 2 mps 750 mmHg 96%
    20:00 +6°C° 0.1 mm 2 mps 750 mmHg 95%
    21:00 +6°C° 0.1 mm 2 mps 750 mmHg 94%
    22:00 +5°C° 0 mm 2 mps 750 mmHg 94%
    23:00 +4°C° 0 mm 2 mps 750 mmHg 93%

    Day after tomorrow, 27 January, Monday

    Time Temperature Precipitation Wind Pressure Humidity
    00:00 +4°C° 0 mm 2 mps 750 mmHg 92%
    01:00 +4°C° 0 mm 2 mps 750 mmHg 92%
    02:00 +3°C° 0 mm 3 mps 750 mmHg 92%
    03:00 +3°C° 0 mm 3 mps 750 mmHg 93%
    04:00 +4°C° 0.1 mm 4 mps 749 mmHg 92%
    05:00 +4°C° 0.1 mm 4 mps 749 mmHg 91%
    06:00 +3°C° 0.1 mm 5 mps 748 mmHg 90%
    07:00 +3°C° 0.3 mm 5 mps 748 mmHg 91%
    08:00 +5°C° 0.3 mm 5 mps 748 mmHg 91%
    09:00 +5°C° 0.3 mm 5 mps 748 mmHg 91%
    10:00 +6°C° 0.2 mm 5 mps 747 mmHg 89%
    11:00 +6°C° 0.2 mm 5 mps 746 mmHg 87%
    12:00 +7°C° 0.2 mm 6 mps 746 mmHg 84%
    13:00 +6°C° 1.1 mm 5 mps 745 mmHg 87%
    14:00 +5°C° 1.1 mm 4 mps 744 mmHg 89%
    15:00 +5°C° 1.1 mm 4 mps 743 mmHg 91%
    16:00 +4°C° 0.2 mm 4 mps 743 mmHg 92%
    17:00 +4°C° 0.2 mm 4 mps 742 mmHg 92%
    18:00 +4°C° 0.2 mm 4 mps 742 mmHg 93%
    19:00 +4°C° 0.1 mm 4 mps 741 mmHg 92%
    20:00 +4°C° 0.1 mm 4 mps 741 mmHg 91%
    21:00 +4°C° 0.1 mm 4 mps 740 mmHg 91%
    22:00 +2°C° 0.6 mm 5 mps 740 mmHg 91%
    23:00 +2°C° 0.6 mm 5 mps 739 mmHg 92%

    28 January, Tuesday

    Time Temperature Precipitation Wind Pressure Humidity
    00:00 +2°C° 0.6 mm 5 mps 739 mmHg 93%
    01:00 +1°C° 0.3 mm 6 mps 739 mmHg 90%
    02:00 +1°C° 0.3 mm 6 mps 739 mmHg 88%
    03:00 +1°C° 0.3 mm 6 mps 739 mmHg 85%
    04:00 0°C° 0 mm 5 mps 740 mmHg 84%
    05:00 0°C° 0 mm 5 mps 741 mmHg 84%
    06:00 0°C° 0 mm 4 mps 741 mmHg 83%
    07:00 0°C° 0 mm 4 mps 742 mmHg 83%
    08:00 0°C° 0 mm 4 mps 742 mmHg 83%
    09:00 0°C° 0 mm 5 mps 742 mmHg 83%
    10:00 +1°C° 0.1 mm 6 mps 742 mmHg 80%
    11:00 +2°C° 0.1 mm 7 mps 743 mmHg 77%
    12:00 +2°C° 0.1 mm 8 mps 743 mmHg 75%
    13:00 +3°C° 0.2 mm 7 mps 743 mmHg 75%
    14:00 +3°C° 0.2 mm 7 mps 743 mmHg 75%
    15:00 +3°C° 0.2 mm 6 mps 743 mmHg 75%
    16:00 +2°C° 0 mm 6 mps 744 mmHg 78%
    17:00 +1°C° 0 mm 5 mps 745 mmHg 80%
    18:00 0°C° 0 mm 5 mps 745 mmHg 83%
    19:00 0°C° 0 mm 4 mps 746 mmHg 83%
    20:00 0°C° 0 mm 4 mps 747 mmHg 83%
    21:00 -1°C° 0 mm 4 mps 748 mmHg 84%
    22:00 -1°C° 0 mm 4 mps 748 mmHg 84%
    23:00 0°C° 0 mm 4 mps 748 mmHg 85%

    29 January, Wednesday

    Time Temperature Precipitation Wind Pressure Humidity
    00:00 0°C° 0 mm 4 mps 749 mmHg 85%
    01:00 0°C° 0 mm 5 mps 749 mmHg 84%
    02:00 0°C° 0 mm 5 mps 750 mmHg 84%
    03:00 0°C° 0 mm 5 mps 750 mmHg 83%
    04:00 0°C° 0 mm 5 mps 750 mmHg 83%
    05:00 0°C° 0 mm 5 mps 750 mmHg 83%
    06:00 0°C° 0 mm 4 mps 750 mmHg 84%
    07:00 0°C° 0 mm 4 mps 751 mmHg 84%
    08:00 0°C° 0 mm 4 mps 751 mmHg 85%
    09:00 +1°C° 0 mm 4 mps 752 mmHg 85%
    10:00 +2°C° 0 mm 5 mps 752 mmHg 82%
    11:00 +3°C° 0 mm 6 mps 753 mmHg 78%
    12:00 +4°C° 0 mm 7 mps 753 mmHg 75%
    13:00 +4°C° 0 mm 7 mps 753 mmHg 76%
    14:00 +5°C° 0 mm 6 mps 754 mmHg 77%
    15:00 +6°C° 0 mm 5 mps 754 mmHg 78%
    16:00 +5°C° 0 mm 5 mps 754 mmHg 83%
    17:00 +4°C° 0 mm 4 mps 754 mmHg 87%
    18:00 +3°C° 0 mm 3 mps 755 mmHg 91%
    19:00 +4°C° 0 mm 4 mps 755 mmHg 92%
    20:00 +4°C° 0 mm 4 mps 755 mmHg 92%
    21:00 +3°C° 0 mm 5 mps 755 mmHg 92%
    22:00 +3°C° 0 mm 5 mps 755 mmHg 92%
    23:00 +3°C° 0 mm 5 mps 755 mmHg 92%

    30 January, Thursday

    Time Temperature Precipitation Wind Pressure Humidity
    00:00 +5°C° 0 mm 5 mps 755 mmHg 92%
    01:00 +3°C° 0 mm 5 mps 755 mmHg 92%
    02:00 +4°C° 0 mm 4 mps 755 mmHg 92%
    03:00 +4°C° 0 mm 4 mps 754 mmHg 92%
    04:00 +4°C° 0 mm 4 mps 754 mmHg 93%
    05:00 +3°C° 0 mm 4 mps 754 mmHg 93%
    06:00 +3°C° 0 mm 3 mps 754 mmHg 94%
    07:00 +3°C° 0 mm 3 mps 753 mmHg 94%
    08:00 +4°C° 0 mm 3 mps 753 mmHg 95%
    09:00 +4°C° 0 mm 3 mps 753 mmHg 95%
    10:00 +5°C° 0 mm 4 mps 753 mmHg 92%
    11:00 +6°C° 0 mm 5 mps 752 mmHg 89%
    12:00 +7°C° 0 mm 5 mps 752 mmHg 86%
    13:00 +7°C° 0 mm 5 mps 751 mmHg 86%
    14:00 +7°C° 0 mm 5 mps 750 mmHg 85%
    15:00 +7°C° 0 mm 4 mps 749 mmHg 85%
    16:00 +7°C° 0 mm 4 mps 749 mmHg 89%
    17:00 +7°C° 0 mm 4 mps 749 mmHg 92%
    18:00 +6°C° 0 mm 4 mps 748 mmHg 95%
    19:00 +7°C° 0.1 mm 4 mps 748 mmHg 96%
    20:00 +8°C° 0.1 mm 3 mps 748 mmHg 97%
    21:00 +9°C° 0.1 mm 3 mps 747 mmHg 98%
    22:00 +8°C° 0.1 mm 4 mps 747 mmHg 98%
    23:00 +10°C° 0.1 mm 4 mps 747 mmHg 98%
    Show more